STARLINK-11532, 62596

Orbit data source: Space-Track

STARLINK-11532, 62596 is a payload satellite owned by SpaceX/Seattle (US) in LEO that was launched on Mon, 13 Jan 2025 UTC via an FALCON 9 launch vehicle from the Air Force Eastern Test Range (AFETR). Payload-class satellites include a variety of spacecraft equipped with specific instruments for various scientific and technological missions. These include communications satellites like Starlink; space stations such as the ISS; scientific satellites like the Hubble; Earth observation satellites from companies like Planet Labs, Umbra, and HawkEye 360; GPS; miniature CubeSats for education and research; and military/defense satellites.

Loading next visibility...
Identifier
62596, 2025-008K
Orbit
LEO
Last TLE update
5 hours ago
Origin
Manufacturer
SpaceX/Seattle
Mission
Operational Commercial Communications
Bus & Motor
STARLINK V2M, Unknown motor
Mass
730 kg wet, ~700 kg dry
Launch date (UTC)
2025-01-13 (6 months ago)
Launch vehicle
FALCON 9
Launch site
Air Force Eastern Test Range (AFETR)
Object type
Payload
Rocket body
Debris
Shape & HBR
Box + 2 Pan, 29 m
Radar Cross Section
36.964 m², Large (>1 m²)

Expand to show TLE details & history

TLE from 5 hours ago
0 STARLINK-11532
1 62596U 25008K   25182.18789189  .00171166  00000-0  84126-3 0  9998
2 62596  42.9943 199.0637 0001861 251.5882 108.4787 15.80916509 27539
Epoch: 2025-07-01T04:30Z
TLE epoch observation values (Epoch: 2025-07-01T04:30:33.859Z)
Latitude
-0.00001°
Longitude
-148.06433°
Altitude
328.013 km
Speed
7.713 km/s
True Right ascension
13h 16m 15s
True Declination
0° 00' 00"
Sunlit
Object was in daylight at epoch
Visualization orbit readout
Latitude
-28.66435°
Longitude
66.19987°
Altitude
334.023 km
Speed
7.709 km/s
Apparent Right ascension
06h 14m 22s
Apparent Declination
-43° 49' 25"
Sunlit
Object is in daylight
Visualization observer readout
Local Sidereal Time
21:38:32
Azimuth
113.162° SE
Elevation
-52.394°
Doppler factor
1
Orbital elements
Apogee altitude
331.087 km
Perigee altitude
328.59 km
Semi-major axis
6,707.976 km
Eccentricity
0.00019
Inclination
42.9943°
RAAN
199.0637°
Arg. of periapsis
251.5882°
True anomaly
Unknown
Mean anomaly
108.4787°
Eccentric anomaly
Unknown
Mean motion
3.95054 °/min
Orbital period
91.13 mins
BSTAR
0.00084126
Loading maneuver chart data...
Loading SW <> Apogee altitude chart data...
Loading historical data...
Loading historical data...
Loading historical data...
Loading historical data...
Loading historical data...
Loading historical data...
Loading historical data...

STARLINK-11532 Visibility forecast

Observer location: undefined°, undefined°

Span
Click to sort rows by Start time (UTC) header in descending order
Start Az.
Max El. time (UTC)
Max El. Az.
Max El.
End time (UTC)
End Az.
4 mins2025-07-02 05:01:10.080Z234.729° WSW2025-07-02 05:03:10.080Z105.753° ESE38.012°2025-07-02 05:05:10.080Z76.465° E
|